[[{"header":{"parameterUnit":"m.s-1","parameterCategory":1,"la1":30.2991,"la2":30.254,"lo1":-89.0895,"lo2":-89.0444,"dy":0.0017,"dx":0.0017,"nx":28,"ny":28,"refTime":"2024-07-04T03:00:00:Z","depth":0,"parameterNumber":2,"parameterNumberName":"U-component_of_WINDS"},"data":[0,0,0,0,0,0,0,0,0,0,0,0,0,0,0,0,0,0,0,0,0,0,0,0,0,0,0,0,0,0,0,0,0,0,0,0,0,0,0,0,0,0,0,0,0,0,0,0,0,0,0,0,0,0,0,0,0,0,4.9452,4.9453,0,4.9577,4.9579,4.958,4.9509,4.9506,4.9502,4.9499,4.9628,4.9634,4.9641,0,0,0,0,0,0,0,0,0,0,0,0,0,4.915,4.9155,4.9452,4.9453,4.9455,4.9577,4.9579,4.958,4.951,4.9506,4.9502,4.9498,4.9626,4.9633,4.9641,0,0,0,0,0,0,0,0,0,0,0,0,0,4.9279,4.9157,4.9451,4.9434,4.9434,4.9577,4.9579,4.9581,4.9511,4.9506,4.95,4.9496,4.9623,4.9633,4.9642,4.9809,0,0,4.9673,4.9677,0,0,0,0,0,0,0,0,4.9271,4.929,4.9435,4.9436,4.9436,4.9522,4.9519,4.9657,4.9512,4.9482,4.9499,4.9493,4.9597,4.9609,4.9644,4.9815,4.982,4.9674,4.968,4.9684,4.9687,0,0,0,0,0,0,0,4.9262,4.9284,4.9501,4.9438,4.9438,4.942,4.9432,4.9545,4.9567,4.9484,4.9479,4.9495,4.9596,4.9634,4.9646,4.9822,4.9674,4.9683,4.9689,4.9693,5.0132,5.0137,0,0,0,0,0,0,4.9255,4.9277,4.9497,4.9505,4.9339,4.943,4.9444,4.95,4.9566,4.9571,4.9499,4.9491,4.962,4.9635,4.965,4.9846,4.9684,4.9694,4.9699,5.0126,5.0133,5.0139,0,0,0,0,0,0,4.9249,4.9275,4.9492,4.939,4.9416,4.944,4.9504,4.9505,4.9543,4.9577,4.9581,4.9534,4.9616,4.9636,4.9769,4.985,4.9698,4.9707,5.012,5.0128,5.0136,5.0242,0,0,0,0,0,0,4.924,4.9273,4.9337,4.9392,4.9422,4.961,4.9509,4.9511,4.9561,4.9551,4.9611,4.9616,4.9614,4.9754,4.9779,4.9861,4.9715,5.0112,5.0124,5.0134,5.0231,5.0253,5.0271,0,0,0,0,0,4.923,4.9363,4.9341,4.9368,4.9502,4.9614,4.9632,4.9626,4.9567,4.9631,4.9653,4.9614,4.9838,4.9769,4.9796,4.9882,5.0107,5.012,5.0133,5.0222,5.0248,5.0271,0,0,0,0,0,0,4.9318,4.937,4.9346,4.9501,4.9554,4.9602,4.9683,4.9655,4.9726,4.9714,4.9704,4.9718,4.9856,4.9882,4.9805,5.0044,4.9963,4.9982,5.0022,5.0047,5.0067,5.0056,4.9723,0,0,0,0,0,4.9355,4.9442,4.9483,4.9616,4.9643,4.9659,4.9707,4.9698,4.9753,4.9775,4.9806,4.986,4.9942,4.9996,5.0074,5.0235,5.0245,5.0307,5.0328,5.0344,5.036,5.0443,5.047,5.0181,5.0181,5.0181,0,0,4.9434,4.9473,4.9528,4.9634,4.9674,4.9763,4.9678,4.9777,4.9842,4.979,4.9916,4.9941,5.0001,5.0147,5.0213,5.0174,5.0442,5.036,5.0373,5.038,5.0459,5.0486,5.0511,5.019,5.0188,5.0187,0,0,4.9621,4.9661,4.9774,4.9815,4.9876,4.9885,4.9912,4.9965,4.9979,5.0106,5.0067,5.0145,5.0288,5.0331,5.0371,5.0573,5.0539,5.0599,5.0703,5.0785,5.0807,5.0827,5.0896,5.0921,5.0615,5.0615,5.0615,0,4.971,4.9844,4.9835,4.9936,4.9983,4.9939,5.0052,5.0093,5.0177,5.0209,5.0164,5.0339,5.0377,5.0531,5.058,5.0615,5.0644,5.0591,5.0805,5.0825,5.0843,5.0909,5.0935,5.0621,5.0621,5.062,5.0619,0,4.9949,5.0042,5.0126,5.0206,5.0262,5.037,5.0376,5.0434,5.042,5.0434,5.0562,5.0605,5.0689,5.0725,5.0713,5.0877,5.085,5.0806,5.0723,5.0878,5.0939,5.0964,5.0631,5.0629,5.0627,5.0625,0,0,5.0195,5.0268,5.0299,5.0334,5.0397,5.0468,5.0573,5.0654,5.0702,5.0762,5.0847,5.0967,5.0925,5.0971,5.0964,5.1036,5.1188,5.0981,5.0982,5.1016,5.1368,5.1399,5.1429,5.1167,5.1172,5.1176,5.1362,0,5.0384,5.0565,5.056,5.0729,5.0813,5.0771,5.0862,5.091,5.0925,5.0998,5.1015,5.1099,5.1039,5.1065,5.1135,5.1155,5.1259,5.1142,5.1244,5.1248,5.1228,5.1461,5.1496,5.1669,5.1386,5.139,5.1393,0,5.0629,5.0694,5.0871,5.0919,5.0954,5.1036,5.1108,5.1179,5.1232,5.1238,5.1288,5.1269,5.1372,5.1289,5.143,5.1351,5.1393,5.1409,5.1415,5.1422,5.1328,5.1472,5.1725,5.175,5.1432,5.1429,5.1426,0,5.0787,5.092,5.1041,5.1073,5.1133,5.119,5.1218,5.1266,5.1314,5.1378,5.1409,5.1485,5.1526,5.1584,5.1584,5.1524,5.1726,5.1644,5.1732,5.1732,5.1775,5.1771,5.2035,5.1807,5.1806,5.1806,5.1805,0,5.0997,5.1106,5.1112,5.1187,5.1307,5.13,5.1419,5.1441,5.1483,5.156,5.153,5.1603,5.1601,5.1674,5.1676,5.1791,5.181,5.1816,5.1815,5.1818,5.1816,5.1843,5.183,5.1813,5.1811,5.181,5.1809,0,5.1193,5.1202,5.1331,5.1377,5.1391,5.1477,5.1516,5.1586,5.1598,5.1696,5.1719,5.1738,5.1823,5.1829,5.1929,5.1929,5.2067,5.2054,5.2049,5.2046,5.2133,5.2123,5.242,5.2457,5.2208,5.221,5.2212,0,5.1325,5.1407,5.1461,5.151,5.1541,5.1622,5.167,5.1666,5.1718,5.1783,5.1845,5.1927,5.1991,5.2129,5.2151,5.2226,5.2212,5.2311,5.2223,5.2222,5.221,5.2204,5.221,5.2327,5.233,5.2332,5.2334,0,5.1557,5.1557,5.1628,5.1701,5.176,5.1817,5.187,5.1912,5.1914,5.1974,5.206,5.211,5.221,5.2291,5.2363,5.2391,5.2362,5.2362,5.2386,5.2388,5.238,5.2382,5.2092,5.2355,5.2353,5.2351,5.235,5.2349,5.1723,5.1793,5.1841,5.1921,5.196,5.201,5.2077,5.2097,5.2169,5.2249,5.2242,5.2337,5.2385,5.248,5.2513,5.2586,5.2552,5.2588,5.2596,5.2604,5.2611,5.2371,5.2599,5.2599,5.2598,5.2598,5.2597,0,5.195,5.1979,5.2053,5.2127,5.2189,5.2157,5.2214,5.2268,5.2351,5.2399,5.2463,5.256,5.2638,5.2666,5.2741,5.2794,5.2782,5.2813,5.2808,5.2814,5.2639,5.2609,5.2821,5.2821,5.2821,5.2821,5.2821,5.2821,5.2076,5.2191,5.2197,5.2331,5.2359,5.245,5.2485,5.253,5.2568,5.2677,5.2741,5.2759,5.2798,5.2875,5.2944,5.295,5.2978,5.3014,5.3014,5.285,5.2827,5.2805,5.2777,5.3021,5.3021,5.3183,5.3185,5.3186]},{"header":{"parameterUnit":"m.s-1","parameterCategory":1,"la1":30.2991,"la2":30.254,"lo1":-89.0895,"lo2":-89.0444,"dy":0.0017,"dx":0.0017,"nx":28,"ny":28,"refTime":"2024-07-04T03:00:00:Z","depth":0,"parameterNumber":3,"parameterNumberName":"V-component_of_WINDS"},"data":[0,0,0,0,0,0,0,0,0,0,0,0,0,0,0,0,0,0,0,0,0,0,0,0,0,0,0,0,0,0,0,0,0,0,0,0,0,0,0,0,0,0,0,0,0,0,0,0,0,0,0,0,0,0,0,0,0,0,1.6204,1.6205,0,1.6295,1.6296,1.6297,1.6297,1.6296,1.6295,1.6294,1.6387,1.639,1.6393,0,0,0,0,0,0,0,0,0,0,0,0,0,1.6031,1.6034,1.6204,1.6205,1.6206,1.6294,1.6296,1.6297,1.6297,1.6296,1.6294,1.6293,1.6385,1.639,1.6394,0,0,0,0,0,0,0,0,0,0,0,0,0,1.6112,1.6035,1.6204,1.6217,1.6219,1.6294,1.6296,1.6297,1.6298,1.6296,1.6294,1.6292,1.6384,1.6389,1.6394,1.6462,0,0,1.6411,1.6413,0,0,0,0,0,0,0,0,1.6108,1.6119,1.6214,1.6216,1.6219,1.6283,1.6269,1.6353,1.6298,1.6268,1.6294,1.6292,1.6353,1.6361,1.6382,1.6467,1.6471,1.6411,1.6414,1.6417,1.6418,0,0,0,0,0,0,0,1.6102,1.6115,1.624,1.6215,1.6218,1.6218,1.6228,1.6285,1.6319,1.627,1.6271,1.6281,1.6354,1.6377,1.6384,1.6472,1.6411,1.6416,1.6419,1.6421,1.6616,1.6618,0,0,0,0,0,0,1.6094,1.611,1.6237,1.6243,1.6158,1.6223,1.6234,1.6264,1.6319,1.6325,1.6283,1.6281,1.6369,1.6378,1.6387,1.647,1.6417,1.6422,1.6425,1.6614,1.6616,1.6618,0,0,0,0,0,0,1.609,1.6105,1.6233,1.6176,1.6193,1.6228,1.6262,1.6267,1.6289,1.6328,1.6334,1.6299,1.6368,1.638,1.6443,1.6473,1.6424,1.6429,1.6612,1.6615,1.6617,1.6636,0,0,0,0,0,0,1.6085,1.6104,1.613,1.6177,1.6196,1.6288,1.6264,1.627,1.6298,1.6297,1.6345,1.6352,1.6367,1.6435,1.6449,1.648,1.6433,1.6609,1.6613,1.6616,1.6633,1.6639,1.6645,0,0,0,0,0,1.6079,1.6132,1.6131,1.6147,1.623,1.629,1.6301,1.6317,1.6301,1.6327,1.6352,1.635,1.6468,1.6442,1.6457,1.649,1.6607,1.6612,1.6616,1.663,1.6638,1.6645,0,0,0,0,0,0,1.6088,1.6139,1.6138,1.6208,1.6245,1.629,1.6324,1.6325,1.6367,1.6364,1.6383,1.6394,1.6457,1.648,1.645,1.6558,1.6535,1.6543,1.6541,1.6549,1.6555,1.6548,1.6438,0,0,0,0,0,1.6098,1.6143,1.6185,1.6243,1.6261,1.6289,1.6316,1.6326,1.6364,1.638,1.6409,1.6447,1.6492,1.6522,1.6566,1.6636,1.6646,1.6666,1.6672,1.6676,1.6683,1.6721,1.673,1.6633,1.6633,1.6633,0,0,1.612,1.6153,1.618,1.6245,1.6275,1.632,1.6302,1.6352,1.6386,1.6387,1.6449,1.6472,1.6515,1.6582,1.6613,1.6603,1.6712,1.6682,1.6685,1.669,1.6726,1.6736,1.6744,1.6636,1.6635,1.6635,0,0,1.6183,1.6213,1.6264,1.6293,1.6337,1.6356,1.6368,1.6413,1.6428,1.649,1.6492,1.6532,1.661,1.664,1.6666,1.6739,1.6738,1.6752,1.6783,1.682,1.6828,1.6835,1.686,1.6869,1.6759,1.6759,1.6759,0,1.6204,1.6274,1.629,1.6339,1.6367,1.637,1.6422,1.645,1.6506,1.6525,1.6513,1.661,1.6639,1.6713,1.673,1.6751,1.6765,1.6747,1.6825,1.6832,1.6839,1.6864,1.6873,1.676,1.676,1.676,1.676,0,1.6297,1.6345,1.6381,1.6435,1.6467,1.6517,1.6541,1.6571,1.6578,1.6597,1.666,1.6695,1.6745,1.6763,1.677,1.6838,1.683,1.6821,1.6799,1.685,1.6873,1.6882,1.6762,1.6762,1.6761,1.6761,0,0,1.637,1.6431,1.6444,1.6468,1.6517,1.6554,1.6604,1.6653,1.6678,1.6717,1.6759,1.6824,1.6816,1.6845,1.6855,1.6888,1.6942,1.6875,1.6876,1.6886,1.7018,1.7024,1.7035,1.6942,1.6944,1.6945,1.7014,0,1.6438,1.6526,1.6542,1.6619,1.6663,1.6666,1.6709,1.6743,1.6763,1.6803,1.6824,1.6869,1.6855,1.6873,1.6905,1.6929,1.6969,1.6924,1.6981,1.6983,1.697,1.7047,1.7054,1.7118,1.7024,1.7025,1.7026,0,1.6529,1.6569,1.6651,1.6693,1.6712,1.675,1.6796,1.6834,1.6873,1.6884,1.6916,1.6922,1.6974,1.6948,1.7019,1.6988,1.7012,1.7027,1.703,1.7036,1.7008,1.7055,1.7139,1.7148,1.7041,1.704,1.7039,0,1.6573,1.6648,1.6706,1.6727,1.6777,1.6804,1.6826,1.6863,1.6891,1.6931,1.6949,1.6994,1.7019,1.7054,1.7072,1.7052,1.7141,1.7118,1.7152,1.7152,1.7171,1.717,1.7259,1.7186,1.7186,1.7186,1.7186,0,1.6647,1.6697,1.6726,1.6762,1.6818,1.6835,1.6889,1.6911,1.6943,1.6983,1.6988,1.7025,1.7047,1.7087,1.7101,1.7157,1.7168,1.7179,1.7182,1.7179,1.7177,1.7195,1.7191,1.7189,1.7188,1.7188,1.7187,0,1.6706,1.6728,1.6792,1.6833,1.6845,1.6884,1.692,1.6955,1.6973,1.7023,1.7036,1.7065,1.7113,1.7134,1.7193,1.7202,1.7266,1.7266,1.7253,1.7254,1.7287,1.7283,1.7391,1.7406,1.7323,1.7324,1.7325,0,1.6752,1.679,1.6836,1.6863,1.6886,1.6929,1.6958,1.6975,1.7005,1.7051,1.708,1.7127,1.7166,1.7242,1.7268,1.7313,1.7314,1.7349,1.7321,1.7316,1.7314,1.7312,1.7315,1.7354,1.7355,1.7355,1.7356,0,1.6831,1.684,1.6881,1.6925,1.6959,1.6995,1.703,1.7052,1.7075,1.7108,1.7156,1.7186,1.7246,1.7293,1.7339,1.7361,1.7362,1.7364,1.7374,1.7371,1.7362,1.7367,1.7267,1.7362,1.7361,1.7361,1.736,1.736,1.6885,1.6919,1.6956,1.7001,1.7029,1.7062,1.7096,1.7119,1.7159,1.7209,1.7217,1.7268,1.7305,1.7367,1.7391,1.7431,1.7422,1.7437,1.7441,1.7444,1.7446,1.7355,1.7439,1.7439,1.7439,1.7439,1.7439,0,1.6964,1.6988,1.7029,1.7078,1.7113,1.7111,1.7149,1.7179,1.7224,1.7258,1.7296,1.7351,1.7396,1.7426,1.7471,1.7498,1.7499,1.7509,1.7507,1.7512,1.7451,1.7438,1.7507,1.7507,1.7507,1.7507,1.7507,1.7507,1.7009,1.7066,1.7079,1.7149,1.7173,1.7223,1.7245,1.7275,1.7302,1.7363,1.7401,1.7419,1.7451,1.7499,1.754,1.7547,1.7564,1.7574,1.7581,1.7524,1.7517,1.751,1.7497,1.7578,1.7578,1.7639,1.7639,1.7639]}]]